Regional Weather Roundup
Issued by NWS Albany, NY

Home | Current Version | Previous Version | Text Only | Print | Product List | Glossary On
Versions: 1 2 3 4 5 6 7 8 9 10 11 12 13 14 15 16 17 18 19 20 21 22 23 24 25 26 27 28 29 30 31 32 33 34 35 36 37 38 39 40 41 42 43 44 45 46 47 48 49 50
000
ASUS41 KALY 110510
RWRALY

NEW YORK STATE HOURLY WEATHER ROUNDUP
NATIONAL WEATHER SERVICE ALBANY NY
1200 AM EST THU FEB 11 2016

NOTE: "FAIR" INDICATES FEW OR NO CLOUDS BELOW 12,000 FEET WITH NO
SIGNIFICANT WEATHER AND/OR NO OBSTRUCTIONS TO VISIBILITY.

NYZ032-033-038>043-046>054-057>066-NYZ062>081-110600-
EAST


CITY           SKY/WX    TMP DP  RH WIND       PRES   REMARKS
ALBANY         CLOUDY    27  13  55 W9        29.70S WCI  18
GLENS FALLS    CLOUDY    28  12  51 W6        29.67R WCI  22
POUGHKEEPSIE   CLOUDY    32  18  56 W9        29.71R WCI  24
MONTGOMERY     FLURRIES  29  18  63 NW17G25   29.71S WCI  17
WHITE PLAINS   MOCLDY    30  17  58 W12       29.70S WCI  20
ISLIP          MOCLDY    30  17  58 W8        29.71S WCI  22
NEW YORK CITY  CLOUDY    32  16  51 W17G26    29.74F WCI  21
CENTRAL PARK   CLOUDY    31  13  47 NW9G21    29.76F WCI  23
$$

NYZ005>009-017-018-044>046-055-056-110600-
CENTRAL


CITY           SKY/WX    TMP DP  RH WIND       PRES   REMARKS
FULTON         SNOW      22  19  89 W8        29.75R VSB 1/2 WCI  12
SYRACUSE       LGT SNOW  20  18  92 W17       29.74S BLWGSNOWWCI   5
ROME           LGT SNOW  21  16  81 W12       29.74R WCI   9
ELMIRA         PTCLDY    18   3  52 W10       29.78S WCI   6
BINGHAMTON     CLOUDY    16   3  56 W16G28    29.69R WCI   1
MONTICELLO     CLOUDY    21  14  73 W14G22    29.69R WCI   8
$$

NYZ026>034-041>043-110600-
NORTH


CITY           SKY/WX    TMP DP  RH WIND       PRES   REMARKS
WATERTOWN      LGT SNOW  19  14  81 W12       29.73R WCI   7
FORT DRUM      NOT AVBL
MASSENA        FLURRIES  17  11  77 W7        29.71R WCI   8
SARANAC LAKE   LGT SNOW  17  14  88 CALM      29.54F FOG
PLATTSBURGH    CLOUDY    16  14  92 CALM      29.66R
$$

NYZ001>004-010>016-019>021-110600-
WEST


CITY           SKY/WX    TMP DP  RH WIND       PRES   REMARKS
NIAGARA FALLS  MOCLDY    16   6  65 W17       29.82S WCI   0
BUFFALO        PTCLDY    14   6  70 W12       29.81F WCI   0
DUNKIRK        CLOUDY    18   2  49 W18G28    29.85S WCI   2
JAMESTOWN      CLOUDY    12   3  67 W15       29.76S WCI  -4
WELLSVILLE     CLEAR     10   2  69 W10       29.71F WCI  -4
ROCHESTER      FLURRIES  18  11  74 W14       29.80R WCI   4
PENN YAN       CLOUDY    19   9  65 W14G21    29.76R WCI   6
$$

             KEY
       WCI = WIND CHILL INDEX
       VSB = VISIBILITY
       HX  = HEAT INDEX
$$



USA.gov is the U.S. government's official web portal to all federal, state and local government web resources and services.